| time (UTC) | temp F | wind direction | speed MPH | gust MPH | rain 1hr in | rain 24hr in | rain mn in | humidity % | barometer mb |
| 20260504222830 | 56 | 134 | 4.0 | 6.0 | 0.00 | 0.00 | 0.00 | 87 | 1020.7 |
| 20260504222327 | 56 | 80 | 4.0 | 6.0 | 0.00 | 0.00 | 0.00 | 87 | 1020.5 |
| 20260504221826 | 56 | 97 | 5.0 | 6.0 | 0.00 | 0.00 | 0.00 | 87 | 1020.5 |
| 20260504221322 | 56 | 80 | 5.0 | 6.0 | 0.00 | 0.00 | 0.00 | 87 | 1020.4 |
| 20260504220819 | 56 | 96 | 5.0 | 7.0 | 0.00 | 0.00 | 0.00 | 87 | 1020.3 |
| 20260504220316 | 56 | 128 | 4.0 | 5.0 | 0.00 | 0.00 | 0.00 | 87 | 1020.3 |
| 20260504215813 | 55 | 133 | 4.0 | 6.0 | 0.00 | 0.00 | 0.00 | 88 | 1020.3 |
| 20260504215309 | 55 | 111 | 4.0 | 6.0 | 0.00 | 0.00 | 0.00 | 88 | 1020.3 |
| 20260504214805 | 56 | 100 | 4.0 | 6.0 | 0.00 | 0.00 | 0.00 | 88 | 1020.2 |
| 20260504214302 | 55 | 98 | 3.0 | 3.0 | 0.00 | 0.00 | 0.00 | 88 | 1020.2 |
| 20260504213759 | 55 | 88 | 3.0 | 5.0 | 0.00 | 0.00 | 0.00 | 88 | 1020.0 |
| 20260504213255 | 55 | 83 | 5.0 | 6.0 | 0.00 | 0.00 | 0.00 | 89 | 1020.1 |
| 20260504212752 | 55 | 87 | 2.0 | 5.0 | 0.00 | 0.00 | 0.00 | 89 | 1019.8 |
| 20260504212248 | 55 | 127 | 4.0 | 6.0 | 0.00 | 0.00 | 0.00 | 89 | 1019.8 |
| 20260504211746 | 55 | 112 | 4.0 | 6.0 | 0.00 | 0.00 | 0.00 | 89 | 1019.9 |
| 20260504211242 | 55 | 145 | 5.0 | 7.0 | 0.00 | 0.00 | 0.00 | 89 | 1019.8 |
| 20260504210740 | 56 | 145 | 5.0 | 8.0 | 0.00 | 0.00 | 0.00 | 89 | 1019.9 |
| 20260504210237 | 55 | 109 | 3.0 | 7.0 | 0.00 | 0.00 | 0.00 | 89 | 1019.5 |
| 20260504205734 | 55 | 136 | 5.0 | 7.0 | 0.00 | 0.00 | 0.00 | 89 | 1019.6 |
| 20260504205232 | 55 | 152 | 7.0 | 8.0 | 0.00 | 0.00 | 0.00 | 89 | 1019.5 |
| 20260504204730 | 55 | 162 | 4.0 | 7.0 | 0.00 | 0.00 | 0.00 | 89 | 1019.5 |
| 20260504204228 | 55 | 149 | 3.0 | 5.0 | 0.00 | 0.00 | 0.00 | 89 | 1019.8 |
| 20260504203727 | 55 | 188 | 3.0 | 6.0 | 0.00 | 0.00 | 0.00 | 89 | 1019.8 |
| 20260504203223 | 55 | 198 | 3.0 | 9.0 | 0.00 | 0.00 | 0.00 | 89 | 1019.4 |
| 20260504202718 | 55 | 206 | 3.0 | 7.0 | 0.00 | 0.00 | 0.00 | 89 | 1019.2 |
| 20260504202215 | 56 | 155 | 4.0 | 5.0 | 0.00 | 0.00 | 0.00 | 89 | 1019.6 |
| 20260504201712 | 56 | 185 | 4.0 | 8.0 | 0.00 | 0.00 | 0.00 | 89 | 1019.5 |
| 20260504201209 | 56 | 198 | 2.0 | 7.0 | 0.00 | 0.00 | 0.00 | 89 | 1019.2 |
| 20260504200707 | 56 | 142 | 4.0 | 6.0 | 0.00 | 0.00 | 0.00 | 89 | 1019.4 |
| 20260504200203 | 56 | 150 | 3.0 | 7.0 | 0.00 | 0.00 | 0.00 | 89 | 1018.9 |
| 20260504195659 | 56 | 128 | 4.0 | 7.0 | 0.00 | 0.00 | 0.00 | 89 | 1019.2 |
| 20260504195155 | 56 | 121 | 6.0 | 7.0 | 0.00 | 0.00 | 0.00 | 89 | 1019.0 |
| 20260504194653 | 56 | 139 | 4.0 | 7.0 | 0.00 | 0.00 | 0.00 | 89 | 1019.0 |
| 20260504194148 | 56 | 155 | 6.0 | 7.0 | 0.00 | 0.00 | 0.00 | 89 | 1018.9 |
| 20260504193645 | 56 | 147 | 5.0 | 8.0 | 0.00 | 0.00 | 0.00 | 88 | 1019.0 |
| 20260504193143 | 57 | 149 | 5.0 | 7.0 | 0.00 | 0.00 | 0.00 | 88 | 1019.0 |
| 20260504192641 | 57 | 172 | 3.0 | 5.0 | 0.00 | 0.00 | 0.00 | 88 | 1018.8 |
| 20260504192139 | 57 | 212 | 2.0 | 3.0 | 0.00 | 0.00 | 0.00 | 88 | 1019.2 |
| 20260504191637 | 57 | 132 | 6.0 | 7.0 | 0.00 | 0.00 | 0.00 | 88 | 1018.8 |
| 20260504191133 | 57 | 140 | 3.0 | 6.0 | 0.00 | 0.00 | 0.00 | 88 | 1018.7 |
| 20260504190629 | 57 | 172 | 3.0 | 5.0 | 0.00 | 0.00 | 0.00 | 88 | 1018.9 |
| 20260504190126 | 57 | 148 | 4.0 | 6.0 | 0.00 | 0.00 | 0.00 | 88 | 1018.7 |
| 20260504185622 | 57 | 86 | 3.0 | 6.0 | 0.00 | 0.00 | 0.00 | 88 | 1018.6 |
| 20260504185119 | 57 | 135 | 3.0 | 5.0 | 0.00 | 0.00 | 0.00 | 88 | 1018.6 |
| 20260504184615 | 57 | 191 | 3.0 | 5.0 | 0.00 | 0.00 | 0.00 | 88 | 1018.5 |
| 20260504184110 | 57 | 166 | 2.0 | 3.0 | 0.00 | 0.00 | 0.00 | 88 | 1018.5 |
| 20260504183607 | 57 | 80 | 2.0 | 3.0 | 0.00 | 0.00 | 0.00 | 87 | 1018.5 |
| 20260504183105 | 57 | 208 | 3.0 | 3.0 | 0.00 | 0.00 | 0.00 | 87 | 1018.6 |
| 20260504182602 | 57 | 192 | 3.0 | 6.0 | 0.00 | 0.00 | 0.00 | 86 | 1018.3 |
| 20260504182100 | 57 | 218 | 4.0 | 9.0 | 0.00 | 0.00 | 0.00 | 87 | 1018.5 |
| 20260504181556 | 57 | 219 | 7.0 | 10.0 | 0.00 | 0.00 | 0.00 | 87 | 1018.3 |
| 20260504181054 | 57 | 225 | 5.0 | 6.0 | 0.00 | 0.00 | 0.00 | 88 | 1018.6 |
| 20260504180553 | 57 | 185 | 6.0 | 10.0 | 0.00 | 0.00 | 0.00 | 88 | 1018.4 |
| 20260504180052 | 57 | 187 | 3.0 | 6.0 | 0.00 | 0.00 | 0.00 | 88 | 1018.5 |
| 20260504175548 | 57 | 197 | 4.0 | 6.0 | 0.00 | 0.00 | 0.00 | 87 | 1018.5 |
| 20260504175045 | 57 | 193 | 5.0 | 8.0 | 0.00 | 0.00 | 0.00 | 87 | 1018.6 |
| 20260504174543 | 58 | 189 | 4.0 | 8.0 | 0.00 | 0.00 | 0.00 | 86 | 1018.3 |
| 20260504174040 | 58 | 225 | 9.0 | 11.0 | 0.00 | 0.00 | 0.00 | 86 | 1018.6 |
| 20260504173537 | 58 | 235 | 9.0 | 11.0 | 0.00 | 0.00 | 0.00 | 87 | 1018.6 |
| 20260504173034 | 57 | 240 | 7.0 | 8.0 | 0.00 | 0.00 | 0.00 | 87 | 1018.4 |
| 20260504172530 | 57 | 249 | 6.0 | 10.0 | 0.00 | 0.00 | 0.00 | 87 | 1018.6 |
| 20260504172027 | 57 | 218 | 11.0 | 13.0 | 0.00 | 0.00 | 0.00 | 88 | 1018.7 |
| 20260504171524 | 57 | 177 | 7.0 | 10.0 | 0.00 | 0.00 | 0.00 | 88 | 1018.7 |
| 20260504171021 | 57 | 248 | 2.0 | 5.0 | 0.00 | 0.00 | 0.00 | 88 | 1018.9 |
| 20260504170516 | 57 | 134 | 3.0 | 5.0 | 0.00 | 0.00 | 0.00 | 88 | 1018.8 |
| 20260504160437 | 58 | 156 | 4.0 | 5.0 | 0.00 | 0.00 | 0.00 | 84 | 1018.5 |
| 20260504150900 | 59 | 218 | 6.0 | 9.0 | 0.00 | 0.00 | 0.00 | 78 | 1018.5 |
| 20260504150358 | 59 | 223 | 7.0 | 10.0 | 0.00 | 0.00 | 0.00 | 79 | 1018.6 |
| 20260504141327 | 60 | 228 | 6.0 | 9.0 | 0.00 | 0.00 | 0.00 | 76 | 1018.3 |
| 20260504140824 | 60 | 234 | 9.0 | 14.0 | 0.00 | 0.00 | 0.00 | 76 | 1018.1 |
| 20260504140319 | 60 | 229 | 7.0 | 9.0 | 0.00 | 0.00 | 0.00 | 76 | 1018.1 |
| 20260504130748 | 60 | 239 | 8.0 | 10.0 | 0.00 | 0.00 | 0.00 | 75 | 1017.9 |
| 20260504130244 | 60 | 210 | 5.0 | 8.0 | 0.00 | 0.00 | 0.00 | 75 | 1018.2 |
| 20260504120208 | 60 | 233 | 10.0 | 14.0 | 0.00 | 0.00 | 0.00 | 72 | 1017.9 |
| 20260504110636 | 61 | 216 | 9.0 | 10.0 | 0.00 | 0.00 | 0.00 | 75 | 1017.0 |
| 20260504110131 | 61 | 219 | 11.0 | 11.0 | 0.00 | 0.00 | 0.00 | 75 | 1017.2 |
| 20260504100557 | 60 | 223 | 7.0 | 9.0 | 0.00 | 0.00 | 0.00 | 78 | 1016.3 |
| 20260504081951 | 60 | 190 | 7.0 | 9.0 | 0.00 | 0.00 | 0.00 | 81 | 1014.9 |
| 20260504081448 | 60 | 206 | 9.0 | 14.0 | 0.00 | 0.00 | 0.00 | 80 | 1015.0 |
| 20260504080943 | 61 | 222 | 11.0 | 16.0 | 0.00 | 0.00 | 0.00 | 78 | 1014.9 |
| 20260504080441 | 62 | 209 | 16.0 | 22.0 | 0.00 | 0.00 | 0.00 | 77 | 1014.8 |
| 20260504070408 | 63 | 261 | 15.0 | 18.0 | 0.00 | 0.00 | 0.00 | 74 | 1013.9 |
| 20260504050253 | 64 | 257 | 13.0 | 16.0 | 0.00 | 0.00 | 0.00 | 73 | 1012.9 |
| 20260504045751 | 64 | 254 | 16.0 | 20.0 | 0.00 | 0.00 | 0.00 | 72 | 1012.7 |
| 20260504045245 | 64 | 243 | 13.0 | 18.0 | 0.00 | 0.00 | 0.00 | 71 | 1012.8 |
| 20260504044743 | 64 | 243 | 12.0 | 17.0 | 0.00 | 0.00 | 0.00 | 71 | 1012.5 |
| 20260504044240 | 64 | 265 | 12.0 | 16.0 | 0.00 | 0.00 | 0.00 | 69 | 1012.6 |
| 20260504043737 | 64 | 247 | 15.0 | 18.0 | 0.00 | 0.00 | 0.00 | 68 | 1012.5 |
| 20260504043234 | 64 | 233 | 10.0 | 17.0 | 0.00 | 0.00 | 0.00 | 70 | 1012.7 |
| 20260504042732 | 64 | 265 | 10.0 | 15.0 | 0.00 | 0.00 | 0.00 | 72 | 1012.6 |
| 20260504042228 | 64 | 271 | 10.0 | 15.0 | 0.00 | 0.00 | 0.00 | 73 | 1012.5 |
| 20260504041724 | 64 | 264 | 12.0 | 15.0 | 0.00 | 0.00 | 0.00 | 73 | 1012.6 |
| 20260504041220 | 64 | 252 | 14.0 | 17.0 | 0.00 | 0.00 | 0.00 | 73 | 1012.5 |
| 20260504040716 | 64 | 264 | 14.0 | 16.0 | 0.00 | 0.00 | 0.00 | 73 | 1012.5 |
| 20260504040214 | 63 | 273 | 11.0 | 16.0 | 0.00 | 0.00 | 0.00 | 73 | 1012.4 |
| 20260504035710 | 63 | 262 | 11.0 | 15.0 | 0.00 | 0.00 | 0.00 | 73 | 1012.5 |
| 20260504035208 | 63 | 258 | 13.0 | 16.0 | 0.00 | 0.00 | 0.00 | 73 | 1012.4 |
| 20260504034705 | 63 | 250 | 13.0 | 16.0 | 0.00 | 0.00 | 0.00 | 73 | 1012.4 |
| 20260504034202 | 63 | 264 | 12.0 | 14.0 | 0.00 | 0.00 | 0.00 | 74 | 1012.6 |
| 20260504033659 | 63 | 262 | 11.0 | 16.0 | 0.00 | 0.00 | 0.00 | 74 | 1012.5 |
| 20260504033156 | 63 | 262 | 12.0 | 15.0 | 0.00 | 0.00 | 0.00 | 74 | 1012.5 |
| 20260504032653 | 64 | 268 | 12.0 | 16.0 | 0.00 | 0.00 | 0.00 | 73 | 1012.4 |
| 20260504032150 | 63 | 262 | 14.0 | 17.0 | 0.00 | 0.00 | 0.00 | 73 | 1012.7 |
| 20260504031642 | 63 | 236 | 14.0 | 17.0 | 0.00 | 0.00 | 0.00 | 73 | 1012.8 |
| 20260504031138 | 63 | 252 | 13.0 | 17.0 | 0.00 | 0.00 | 0.00 | 72 | 1012.6 |
| 20260504030635 | 63 | 237 | 15.0 | 18.0 | 0.00 | 0.00 | 0.00 | 73 | 1012.6 |
| 20260504030132 | 63 | 256 | 14.0 | 17.0 | 0.00 | 0.00 | 0.00 | 73 | 1012.6 |
| 20260504025628 | 63 | 247 | 10.0 | 16.0 | 0.00 | 0.00 | 0.00 | 74 | 1012.8 |
| 20260504025125 | 63 | 258 | 12.0 | 17.0 | 0.00 | 0.00 | 0.00 | 73 | 1012.5 |
| 20260504024622 | 63 | 249 | 11.0 | 17.0 | 0.00 | 0.00 | 0.00 | 73 | 1012.7 |
| 20260504024119 | 63 | 257 | 12.0 | 18.0 | 0.00 | 0.00 | 0.00 | 74 | 1012.7 |
| 20260504023616 | 62 | 253 | 11.0 | 20.0 | 0.00 | 0.00 | 0.00 | 74 | 1012.8 |
| 20260504023112 | 63 | 252 | 16.0 | 20.0 | 0.00 | 0.00 | 0.00 | 75 | 1012.7 |
| 20260504022608 | 63 | 243 | 12.0 | 17.0 | 0.00 | 0.00 | 0.00 | 75 | 1013.0 |
| 20260504022104 | 63 | 252 | 13.0 | 17.0 | 0.00 | 0.00 | 0.00 | 75 | 1013.0 |
| 20260504021602 | 63 | 255 | 12.0 | 20.0 | 0.00 | 0.00 | 0.00 | 74 | 1013.0 |
| 20260504021059 | 63 | 232 | 14.0 | 20.0 | 0.00 | 0.00 | 0.00 | 74 | 1013.1 |
| 20260504020555 | 63 | 259 | 13.0 | 17.0 | 0.00 | 0.00 | 0.00 | 75 | 1012.7 |
| 20260504020052 | 62 | 243 | 14.0 | 17.0 | 0.00 | 0.00 | 0.00 | 74 | 1012.8 |
| 20260504015548 | 62 | 264 | 15.0 | 20.0 | 0.00 | 0.00 | 0.00 | 75 | 1013.0 |
| 20260504015044 | 63 | 233 | 13.0 | 17.0 | 0.00 | 0.00 | 0.00 | 75 | 1012.7 |
| 20260504014541 | 63 | 254 | 13.0 | 16.0 | 0.00 | 0.00 | 0.00 | 75 | 1012.7 |
| 20260504014038 | 63 | 237 | 13.0 | 16.0 | 0.00 | 0.00 | 0.00 | 75 | 1012.7 |
| 20260504013536 | 63 | 256 | 13.0 | 20.0 | 0.00 | 0.00 | 0.00 | 75 | 1012.7 |
| 20260504013033 | 63 | 241 | 9.0 | 17.0 | 0.00 | 0.00 | 0.00 | 75 | 1012.7 |
| 20260504012530 | 62 | 246 | 16.0 | 22.0 | 0.00 | 0.00 | 0.00 | 74 | 1012.6 |
| 20260504012028 | 62 | 225 | 14.0 | 17.0 | 0.00 | 0.00 | 0.00 | 74 | 1012.7 |
| 20260504011524 | 63 | 244 | 10.0 | 18.0 | 0.00 | 0.00 | 0.00 | 74 | 1012.5 |
| 20260504011020 | 63 | 243 | 17.0 | 23.0 | 0.00 | 0.00 | 0.00 | 73 | 1012.5 |
| 20260504010516 | 63 | 252 | 15.0 | 22.0 | 0.00 | 0.00 | 0.00 | 75 | 1012.2 |
| 20260504010012 | 63 | 263 | 17.0 | 25.0 | 0.00 | 0.00 | 0.00 | 75 | 1012.4 |
| 20260504005509 | 63 | 228 | 17.0 | 20.0 | 0.00 | 0.00 | 0.00 | 74 | 1012.3 |
| 20260504005007 | 62 | 249 | 12.0 | 21.0 | 0.00 | 0.00 | 0.00 | 75 | 1012.2 |
| 20260504004504 | 62 | 247 | 12.0 | 18.0 | 0.00 | 0.00 | 0.00 | 76 | 1012.3 |
| 20260504004001 | 62 | 257 | 15.0 | 20.0 | 0.00 | 0.00 | 0.00 | 74 | 1012.1 |
| 20260504003457 | 62 | 236 | 15.0 | 23.0 | 0.00 | 0.00 | 0.00 | 75 | 1012.1 |
| 20260504002954 | 62 | 239 | 12.0 | 18.0 | 0.00 | 0.00 | 0.00 | 75 | 1012.1 |
| 20260504002451 | 62 | 278 | 14.0 | 21.0 | 0.00 | 0.00 | 0.00 | 76 | 1012.1 |
| 20260504001948 | 62 | 238 | 14.0 | 16.0 | 0.00 | 0.00 | 0.00 | 76 | 1012.0 |
| 20260504001446 | 62 | 227 | 19.0 | 23.0 | 0.00 | 0.00 | 0.00 | 76 | 1012.2 |
| 20260504000942 | 62 | 237 | 13.0 | 16.0 | 0.00 | 0.00 | 0.00 | 76 | 1011.8 |
| 20260504000439 | 62 | 248 | 12.0 | 20.0 | 0.00 | 0.00 | 0.00 | 76 | 1011.8 |
| 20260503235936 | 62 | 231 | 16.0 | 23.0 | 0.00 | 0.00 | 0.00 | 75 | 1011.7 |
| 20260503235434 | 61 | 281 | 13.0 | 17.0 | 0.00 | 0.00 | 0.00 | 76 | 1011.7 |
| 20260503234931 | 61 | 234 | 15.0 | 23.0 | 0.00 | 0.00 | 0.00 | 76 | 1011.9 |
| 20260503234429 | 61 | 225 | 13.0 | 17.0 | 0.00 | 0.00 | 0.00 | 75 | 1011.7 |
| 20260503233927 | 62 | 261 | 17.0 | 22.0 | 0.00 | 0.00 | 0.00 | 76 | 1011.4 |
| 20260503233423 | 61 | 270 | 15.0 | 20.0 | 0.00 | 0.00 | 0.00 | 76 | 1011.5 |
| 20260503232920 | 61 | 254 | 18.0 | 21.0 | 0.00 | 0.00 | 0.00 | 75 | 1011.4 |
| 20260503232417 | 62 | 251 | 16.0 | 22.0 | 0.00 | 0.00 | 0.00 | 75 | 1011.1 |
| 20260503231914 | 61 | 252 | 16.0 | 18.0 | 0.00 | 0.00 | 0.00 | 76 | 1011.3 |
| 20260503231412 | 61 | 248 | 14.0 | 22.0 | 0.00 | 0.00 | 0.00 | 76 | 1011.3 |
| 20260503230908 | 62 | 256 | 17.0 | 21.0 | 0.00 | 0.00 | 0.00 | 76 | 1011.1 |
| 20260503230404 | 61 | 248 | 17.0 | 22.0 | 0.00 | 0.00 | 0.00 | 76 | 1011.0 |
| 20260503225902 | 61 | 247 | 18.0 | 22.0 | 0.00 | 0.00 | 0.00 | 76 | 1010.8 |
| 20260503225358 | 61 | 266 | 12.0 | 18.0 | 0.00 | 0.00 | 0.00 | 77 | 1010.7 |
| 20260503224854 | 61 | 260 | 16.0 | 22.0 | 0.00 | 0.00 | 0.00 | 76 | 1010.8 |
| 20260503224351 | 61 | 243 | 12.0 | 22.0 | 0.00 | 0.00 | 0.00 | 77 | 1010.8 |
| 20260503223849 | 61 | 270 | 15.0 | 21.0 | 0.00 | 0.00 | 0.00 | 79 | 1010.4 |
| 20260503223347 | 61 | 253 | 14.0 | 17.0 | 0.00 | 0.00 | 0.00 | 81 | 1010.4 |